{"data":{"norad_id":44530,"intl_designator":"2019-059C","name":"TAURUS-1 (JINNIUZUO 1)","alt_names":[],"object_type":"PAYLOAD","status":"ACTIVE","operator":null,"country":"PRC","launch_date":"2019-09-12","launch_site_code":"TAISC","launch_vehicle":null,"mission":null,"orbit_class":"UNKNOWN","rcs_meters":null,"size_class":null,"mass_kg":null,"dimensions":null,"purposes":[],"wikipedia_slug":null,"has_3d_model":false,"image_url":null,"decayed_at":null,"tle_current":{"epoch":"2026-05-25T04:46:05.507904Z","epoch_age_seconds":57189,"freshness":"FRESH","line1":"1 44530U 19059C   26145.19867486  .00004807  00000+0  77754-3 0  9998","line2":"2 44530  98.6403 308.6074 0008671  33.0158 327.1587 14.71803180355265","mean_motion":14.7180318,"eccentricity":0.0008671,"inclination_deg":98.6403,"raan_deg":308.6074,"arg_perigee_deg":33.0158,"mean_anomaly_deg":327.1587,"bstar":0.00077754,"rev_number":35526,"period_min":97.83916895736,"perigee_km":649.21880859584,"apogee_km":661.41622541924,"semimajor_km":7033.4545170075,"source":"CELESTRAK","updated_at":"2026-05-25T13:37:56.000636Z"}}}